Vertical_Velocity
-7 -3 -2 -4 -3 -1 -2 1 2 -1 3 2 5 5 4 -3 4 5 -1 -0 -2 5
-5 -5 -2 -2 -4 -2 -3 -1 2 2 3 3 1 4 4 -1 4 2 -0 1 4 -0
-3 -3 -2 -1 -1 -3 -2 -2 0 -1 5 3 3 2 -2 4 8 -1 3 1 2 -0
-3 -1 -3 -1 1 -1 -1 -2 -1 -1 3 5 3 3 -0 2 6 2 0 4 2 3
-1 -2 -1 -2 -1 -1 -1 -2 -1 -2 2 -0 4 1 4 -1 3 3 1 -1 3 -2
-3 -1 -3 -2 -1 -2 -0 -2 -3 -1 -0 0 1 3 5 3 5 0 1 -1 5 -3
-2 -1 -1 -2 -1 -1 -2 -1 -2 -2 0 -0 2 2 2 4 5 0 1 -1 8 -4
-1 0 0 -2 -2 -0 -2 -2 -2 2 -0 3 5 6 1 7 3 3 2 -0 -1 2
-2 -0 0 -1 -2 -1 -2 -2 -1 -1 -0 6 5 8 -1 -2 16 14 -2 3 5 4
-2 -1 0 0 -1 -1 -2 -1 -3 -3 -3 7 1 8 3 -6 9 8 9 2 5 2
-1 -1 0 1 0 -0 -1 -0 -1 -3 -1 5 6 6 8 -1 -1 5 5 4 5 10
-2 0 1 0 1 -1 1 -2 -1 -1 -2 5 8 3 6 -3 2 -1 2 -3 1 18
-2 -2 0 0 1 -1 -0 -0 -2 -1 -1 1 6 3 7 -0 -2 3 -0 12 7 30
-3 -0 -2 -0 -1 1 -0 -0 -1 -1 1 -0 4 6 5 5 -7 2 5 11 11 20
Height
5472 5470 5469 5468 5469 5471 5475 5482 5490 5502 5517 5534 5551 5567 5586 5601 5618 5631 5641 5653 5663 5672
5456 5454 5454 5453 5453 5455 5456 5460 5467 5475 5488 5506 5525 5543 5560 5578 5594 5610 5623 5635 5647 5657
5441 5440 5439 5440 5440 5441 5441 5443 5447 5454 5463 5478 5498 5518 5536 5556 5573 5588 5605 5617 5630 5641
5428 5426 5426 5427 5428 5428 5428 5429 5431 5436 5442 5454 5471 5492 5513 5534 5551 5568 5584 5599 5613 5626
5417 5414 5413 5413 5415 5416 5417 5416 5418 5421 5425 5433 5448 5467 5490 5509 5529 5547 5564 5579 5594 5609
5405 5402 5400 5400 5402 5403 5405 5405 5405 5408 5410 5415 5429 5445 5466 5486 5506 5524 5543 5560 5578 5593
5395 5391 5389 5388 5389 5391 5392 5393 5392 5394 5398 5401 5412 5428 5444 5465 5485 5502 5523 5542 5563 5577
5384 5381 5379 5377 5377 5378 5380 5382 5381 5382 5386 5390 5400 5413 5428 5445 5465 5485 5504 5523 5543 5561
5375 5371 5369 5367 5366 5367 5369 5370 5371 5371 5375 5379 5389 5401 5412 5427 5449 5472 5487 5507 5527 5545
5368 5363 5360 5358 5357 5357 5358 5360 5360 5360 5364 5368 5376 5387 5399 5413 5430 5453 5471 5491 5512 5530
5362 5356 5351 5349 5348 5348 5348 5349 5350 5350 5353 5358 5365 5376 5386 5401 5417 5436 5455 5476 5498 5516
5355 5349 5344 5341 5339 5339 5339 5339 5340 5340 5344 5348 5355 5366 5375 5389 5404 5425 5442 5463 5482 5499
5347 5342 5337 5333 5331 5330 5330 5331 5331 5331 5335 5338 5346 5356 5366 5376 5391 5409 5430 5448 5465 5482
5338 5334 5329 5326 5323 5322 5322 5322 5323 5323 5327 5331 5336 5346 5357 5367 5382 5395 5411 5428 5444 5464